Content
SEND FEEDBACK

Daily
Averages
Monthly
Summary
Turkey

YUMURTALIK, TURKEY


Home > Middle East > Turkey
Elevation: 33 feet     Latitude: 36 48N     Longitude: 035 48E

WEATHER
 
SELECT A DAY
Number of Records: 176,650;   Date Range: 7/1/96 - 9/16/14
 
SHARE

PRINT THIS DATA

[ ← Previous Day ]
WEATHER ALMANAC - JANUARY 31, 2013
[ Next Day → ]
[ °C ]   °F
Weather ElementAverageHighLow
Temperature51.4 °F60.8 °F (12:50 pm)46 °F (2:00 am)
Dewpoint41.1 °F46.4 °F (9:20 pm)35.6 °F (12:50 pm)
Humidity69 %93 % (9:20 pm)32 % (2:00 pm)
Barometer29.67 in29.74 in (11:50 pm)29.62 in (12:50 pm)
Wind Speed6.3 mph13.8 mph (10:20 am)
Weather ElementAverage
Visibility6.2 mi
Wind DirectionENE (80 °)

Weather ElementTotal
Precipitation---
Heating Degree Days11.6 (Base 65)
Growing Degree Days3.4 (Base 50)
Averaged from 50 records on January 31, 2013
WEATHER CONDITIONS BREAKOUT
WIND DIRECTION BREAKOUT
WEATHER BY HOUR - JANUARY 31, 2013
[ °C ]   °F
Local TimeTemperatureDewpointHumidityBarometerVisibilityWind DirectionWind SpeedGust SpeedPrecipitationEventsConditions
12:50 AM48.2 °F41.0 °F76 %29.71 in6.2 miNE (40°)8.1 mphMostly Cloudy
1:20 AM48.2 °F39.2 °F71 %29.71 in6.2 miNE (50°)9.2 mphMostly Cloudy
1:50 AM46.4 °F41.0 °F81 %29.68 in6.2 miNE (50°)6.9 mphMostly Cloudy
2:00 AM46.0 °F40.0 °F74 %29.71 in6.0 miNE (50°)6.9 mphPartly Cloudy
2:20 AM46.4 °F41.0 °F81 %29.68 in6.2 miNNE (20°)5.8 mphMostly Cloudy
2:50 AM48.2 °F41.0 °F76 %29.68 in6.2 miNNE (20°)9.2 mphMostly Cloudy
3:20 AM48.2 °F41.0 °F76 %29.65 in6.2 miNNE (20°)8.1 mphMostly Cloudy
3:50 AM48.2 °F41.0 °F76 %29.65 in6.2 miNNE (30°)4.6 mphMostly Cloudy
4:50 AM46.4 °F39.2 °F76 %29.65 in6.2 miNNE (20°)6.9 mphMostly Cloudy
5:20 AM46.4 °F41.0 °F81 %29.65 in6.2 miNNE (30°)6.9 mphMostly Cloudy
5:50 AM46.4 °F41.0 °F81 %29.65 in6.2 miNNE (30°)5.8 mphMostly Cloudy
6:20 AM46.4 °F39.2 °F76 %29.65 in6.2 miNE (50°)9.2 mphMostly Cloudy
6:50 AM46.4 °F39.2 °F76 %29.65 in6.2 miNE (40°)4.6 mphMostly Cloudy
7:20 AM46.4 °F39.2 °F76 %29.65 in6.2 miNNE (30°)4.6 mphMostly Cloudy
7:50 AM48.2 °F41.0 °F76 %29.65 in6.2 miNNE (30°)6.9 mphMostly Cloudy
8:00 AM47.0 °F40.0 °F71 %29.67 in6.0 miNNE (30°)6.9 mphPartly Cloudy
8:20 AM50.0 °F39.2 °F66 %29.65 in6.2 miENE (70°)5.8 mphMostly Cloudy
8:50 AM51.8 °F41.0 °F67 %29.65 in6.2 miNNE (30°)4.6 mphMostly Cloudy
9:20 AM51.8 °F39.2 °F62 %29.68 in6.2 miENE (60°)11.5 mphMostly Cloudy
9:50 AM53.6 °F39.2 °F58 %29.68 in6.2 miENE (60°)11.5 mphMostly Cloudy
10:20 AM55.4 °F39.2 °F54 %29.68 in6.2 miNE (50°)13.8 mphMostly Cloudy
10:50 AM57.2 °F39.2 °F51 %29.65 in6.2 miEast (80°)9.2 mphMostly Cloudy
11:20 AM57.2 °F39.2 °F51 %29.65 in6.2 miENE (70°)10.4 mphMostly Cloudy
11:50 AM59.0 °F37.4 °F45 %29.65 in6.2 miENE (70°)8.1 mphMostly Cloudy
12:20 PM59.0 °F37.4 °F45 %29.65 in6.2 miENE (60°)9.2 mphMostly Cloudy
12:50 PM60.8 °F35.6 °F39 %29.62 in6.2 miEast (80°)9.2 mphMostly Cloudy
1:20 PM59.0 °F37.4 °F45 %29.62 in6.2 miEast (80°)3.5 mphMostly Cloudy
1:50 PM59.0 °F37.4 °F45 %29.62 in6.2 miEast (90°)6.9 mphMostly Cloudy
2:00 PM60.0 °F38.0 °F32 %29.64 in6.0 miEast (90°)6.9 mphPartly Cloudy
2:20 PM60.8 °F39.2 °F45 %29.62 in6.2 miEast (80°)4.6 mphMostly Cloudy
2:50 PM59.0 °F39.2 °F48 %29.65 in6.2 miSE (140°)4.6 mphMostly Cloudy
3:20 PM59.0 °F39.2 °F48 %29.65 in6.2 miSE (140°)6.9 mphMostly Cloudy
3:50 PM59.0 °F39.2 °F48 %29.65 in6.2 miSouth (180°)2.3 mphMostly Cloudy
4:20 PM57.2 °F44.6 °F63 %29.65 in6.2 miSW (230°)9.2 mphMostly Cloudy
4:50 PM53.6 °F44.6 °F72 %29.68 in6.2 miSW (220°)8.1 mphMostly Cloudy
5:20 PM51.8 °F44.6 °F76 %29.68 in6.2 miSW (220°)5.8 mphMostly Cloudy
5:50 PM51.8 °F44.6 °F76 %29.68 in6.2 miSSW (200°)4.6 mphMostly Cloudy
6:20 PM51.8 °F44.6 °F76 %29.68 in6.2 miSW (230°)2.3 mphMostly Cloudy
6:50 PM51.8 °F44.6 °F76 %29.68 in6.2 miWest (270°)3.5 mphMostly Cloudy
7:20 PM50.0 °F44.6 °F82 %29.71 in6.2 miCalmMostly Cloudy
7:50 PM48.2 °F44.6 °F87 %29.71 in6.2 miNE (50°)2.3 mphMostly Cloudy
8:00 PM49.0 °F44.0 °F77 %29.72 in6.0 miNE (50°)2.3 mphPartly Cloudy
8:20 PM48.2 °F44.6 °F87 %29.71 in6.2 miNW (320°)2.3 mphScattered Clouds
8:50 PM48.2 °F44.6 °F87 %29.71 in6.2 miNNE (20°)5.8 mphMostly Cloudy
9:20 PM48.2 °F46.4 °F93 %29.71 in6.2 miNNE (20°)5.8 mphMostly Cloudy
9:50 PM48.2 °F46.4 °F93 %29.71 in6.2 miNE (40°)6.9 mphMostly Cloudy
10:20 PM48.2 °F44.6 °F87 %29.71 in6.2 miENE (60°)5.8 mphMostly Cloudy
10:50 PM46.4 °F42.8 °F87 %29.71 in6.2 miNNE (30°)4.6 mphMostly Cloudy
11:20 PM48.2 °F41.0 °F76 %29.71 in6.2 miNNE (30°)5.8 mphMostly Cloudy
11:50 PM46.4 °F41.0 °F81 %29.74 in6.2 miNE (40°)2.3 mphMostly Cloudy
Hourly data recorded from LTAG, located miles away from Yumurtalik, Turkey







STORIES FROM OUR PARTNERS